Location: Carnel
(47.7394°N, 3.3675°W)
Time: 18:34:04
(UTC+00:00)

Daily predictions for brighter satellites

Satellite Brightness Start Highest point End
(mag) Time Altitude Azimuth Time Altitude Azimuth Time Altitude Azimuth
NOSS 2-1 (E) 4.2 17:39:28 10° NW 17:43:51 80° SW 17:50:02 10° SE
SKYMED 2 4.5 17:40:35 10° NE 17:44:23 29° E 17:48:09 10° SSE
Cosmos 2279 Rocket 4.3 17:39:50 10° SSW 17:46:01 73° W 17:52:16 10° N
Cosmos 1025 Rocket 4.1 17:42:06 10° SSW 17:46:14 48° WNW 17:50:25 10° N
SL-08 R/B 3.5 17:43:00 10° NNE 17:47:55 64° ESE 17:52:49 10° S
BREEZE-M DEB (TANK) 3.8 17:45:44 10° WNW 17:53:20 48° SW 17:56:15 10° SE
Cosmos 1607 4.0 17:47:38 10° SW 17:53:46 89° NW 18:00:01 10° NE
Timation 2 Rocket 4.0 17:48:20 10° NNW 17:54:34 86° ENE 18:01:03 10° SSE
YAOGAN 1 3.7 17:52:56 10° ESE 17:56:15 22° ENE 17:59:35 10° NNE
Cosmos 407 Rocket 3.5 17:52:58 10° S 17:58:05 69° ESE 18:03:11 10° NNE
Cosmos 1328 4.0 17:54:19 10° SSE 17:58:09 48° E 18:01:59 10° NNE
BREEZE M DEB (TANK) 3.4 17:54:47 10° WNW 18:01:33 65° SSW 18:04:19 10° SE
Lacrosse 5 rocket 2.3 17:58:37 10° NW 18:01:40 25° NNE 18:04:27 12° ENE
DMSP B5D2-2 4.1 17:57:15 10° NNE 18:02:33 67° ESE 18:07:46 10° S
Cosmos 1844 Rocket 3.2 17:59:18 10° NNW 18:04:30 38° NE 18:09:40 10° ESE
Meteor PRIRODA 3.9 18:01:17 10° S 18:04:49 70° WSW 18:08:22 10° NNW
USA 281 4.2 17:58:52 10° NNE 18:05:05 47° NW 18:11:18 10° SW
APEX 4.4 17:59:37 10° S 18:05:34 57° ESE 18:11:07 10° NE
Cosmos 1536 Rocket 3.5 18:02:01 10° S 18:06:19 72° E 18:10:39 10° NNE
CZ-4B DEB 4.3 18:01:17 10° SE 18:06:33 52° ENE 18:11:51 10° N
CZ-4 R/B 2.9 18:04:55 10° ESE 18:07:41 18° ENE 18:10:26 10° NNE
Cosmos 1140 Rocket 3.6 18:04:21 10° SSW 18:09:31 83° WNW 18:14:43 10° NNE
CZ-4B R/B 3.8 18:05:46 10° ESE 18:10:27 32° ENE 18:15:13 10° N
Cosmos 44 4.5 18:06:51 10° WSW 18:10:50 34° NW 18:14:59 10° NNE
Cosmos 2227 4.4 18:09:04 10° NNW 18:14:53 84° WSW 18:20:38 10° SSE
Cosmos 1190 Rocket 4.0 18:11:45 10° S 18:16:59 64° ESE 18:22:14 10° NNE
Cosmos 1844 4.1 18:11:48 10° NNW 18:17:19 42° NE 18:22:46 10° SE
CZ-4C R/B 3.4 18:14:29 10° NNE 18:18:15 49° E 18:21:48 10° S
Cosmos 1606 Rocket 3.7 18:14:12 10° N 18:18:22 46° ENE 18:22:32 10° SSE
Cosmos 1408 2.3 18:15:03 10° S 18:18:26 79° E 18:21:53 10° NNE
RESURS DK-1 3.3 18:15:21 10° N 18:18:56 28° NE 18:21:56 13° ESE
ISS -2.9 18:17:05 10° WNW 18:20:21 49° SSW 18:23:37 10° SE
Cosmos 2278 3.9 18:16:02 10° SSW 18:21:42 78° WNW 18:27:27 10° NNE
Cosmos 1633 3.5 18:19:05 10° SE 18:21:45 22° E 18:23:16 17° NE
Cosmos 1184 Rocket 3.7 18:19:46 10° NNW 18:21:59 36° W 18:24:10 10° SSW
Cosmos 2228 2.9 18:18:00 10° N 18:22:15 90° N 18:26:29 10° S
Cosmos 724 4.4 18:17:39 10° SW 18:23:35 83° NW 18:29:43 10° NE
Cosmos 2360 Rocket 2.9 18:21:07 10° SSE 18:26:01 32° ESE 18:30:24 13° NE
Cosmos 1892 2.6 18:22:29 10° S 18:26:09 60° E 18:29:52 10° NNE
Cosmos 2219 Rocket 3.7 18:24:09 10° SE 18:27:04 15° E 18:27:04 15° E
Cosmos 1892 Rocket 4.2 18:26:28 10° SSE 18:30:25 33° E 18:34:23 10° NNE
Cosmos 2333 Rocket 3.3 18:26:33 10° SSE 18:30:54 23° ESE 18:33:11 18° ENE
USA 290 4.3 18:29:02 10° WSW 18:31:49 27° WNW 18:34:38 10° N
Cosmos 2278 Rocket 3.9 18:29:38 10° N 18:32:25 14° NNE 18:33:32 13° NE
COSMO-SKYMED 1 2.5 18:28:11 10° NNE 18:32:34 87° ESE 18:36:55 10° SSW
CZ-4B R/B 4.1 18:31:29 10° S 18:35:26 45° W 18:39:11 10° NNW
Cosmos 2322 Rocket 2.3 18:31:53 10° S 18:37:20 55° ESE 18:42:49 10° NE
Cosmos 1825 2.2 18:36:02 10° S 18:39:36 52° E 18:43:13 10° NNE
SL-4 R/B 2.3 18:38:18 10° WNW 18:41:41 43° N 18:43:14 27° NE
COSMOS 2455 4.1 18:36:40 10° WSW 18:42:12 36° NW 18:47:46 10° NNE
Cosmos 1244 Rocket 4.5 18:36:55 10° N 18:43:15 69° ENE 18:49:31 10° SSE
Cosmos 468 Rocket 3.9 18:40:15 10° NNW 18:45:28 78° ENE 18:50:36 10° SSE
BlueWalker 3 2.9 18:46:03 10° WNW 18:49:40 36° N 18:51:11 26° NE
Cosmos 1726 Rocket 3.4 18:46:38 10° N 18:50:59 78° E 18:55:17 10° SSE
SL-16 R/B 2.2 18:45:31 10° SSW 18:51:12 85° WNW 18:56:56 10° NNE
In-Cosmos 22 Rocket 4.2 18:47:23 10° S 18:53:09 72° E 18:58:59 10° NNE
Cosmos 1954 Rocket 4.0 18:49:47 10° SSW 18:55:02 90° SE 19:00:18 10° NNE
ATLAS 5 CENTAUR R/B 4.0 18:55:01 10° NNW 18:56:37 12° N 18:58:17 10° NNE
Cosmos 1745 Rocket 4.2 18:50:41 10° N 18:56:41 45° ENE 19:02:34 10° SE
Okean O Rocket 1.7 18:55:57 10° SSE 19:00:13 53° ENE 19:04:32 10° N
Cosmos 1386 Rocket 4.5 18:56:22 10° N 19:02:15 52° ENE 19:08:06 10° SSE
Cosmos 1340 2.6 18:59:06 10° N 19:02:42 51° ENE 19:02:55 50° E
ATLAS CENTAUR R/B 3.4 18:58:59 10° W 19:02:55 26° NW 19:06:27 11° NNE
PAYLOAD B 4.4 18:58:24 10° S 19:03:54 74° WSW 19:09:26 10° NNW
Cosmos 1763 Rocket 4.0 18:59:14 10° NNW 19:04:21 61° WSW 19:09:22 10° S
Cosmos 1980 Rocket 4.2 19:00:33 10° W 19:05:07 24° NW 19:09:43 10° N
CSL-04 Rocket 4.2 19:04:36 33° E 19:05:17 34° ENE 19:10:07 10° N
Cosmos 1850 Rocket 4.3 19:01:09 10° S 19:05:57 40° ESE 19:07:01 36° ENE
IRIDIUM 104 4.2 19:03:23 10° N 19:08:37 77° E 19:13:50 10° S
Cosmos 44 Rocket 4.4 19:04:56 10° S 19:07:45 25° SE 19:07:45 25° SE
Meteor 1-27 4.2 19:04:43 10° N 19:10:34 81° ENE 19:16:17 10° SSE
Cosmos 1741 Rocket 4.3 19:08:09 10° S 19:13:11 45° ESE 19:14:11 40° ENE
Cosmos 1869 3.1 19:10:47 10° N 19:14:42 89° ESE 19:18:37 10° S
Cosmos 1709 Rocket 4.3 19:09:31 10° N 19:15:18 40° ENE 19:16:27 37° E
ATLAS 2AS CENTAUR R/B 3.3 19:09:16 10° NW 19:16:06 57° WSW 19:22:31 10° SSE
Cosmos 841 Rocket 3.4 19:10:50 10° NNW 19:16:08 69° ENE 19:19:10 25° SE
Cosmos 2237 4.5 19:11:18 10° SW 19:17:00 69° WNW 19:22:15 13° NNE
Cosmos 1943 Rocket 4.2 19:14:56 10° N 19:16:34 12° NNE 19:16:34 12° NNE
IRIDIUM 114 4.3 19:12:29 10° N 19:17:45 89° W 19:22:58 10° S
Cosmos 1461 2.9 19:15:07 10° SW 19:19:23 88° WNW 19:20:38 47° NE
MINOTAUR 4 R/B 4.0 19:19:53 50° N 19:20:39 74° WNW 19:24:02 10° SSW
Genesis I 3.5 19:17:19 10° SSW 19:20:44 53° SSE 19:20:44 53° SSE
Cosmos 540 Rocket 3.7 19:16:14 10° NNW 19:21:21 67° WSW 19:26:26 10° S
Cosmos 1553 Rocket 3.9 19:15:27 10° S 19:21:31 89° E 19:27:43 10° N
Cosmos 1417 Rocket 4.4 19:18:27 10° S 19:24:40 70° E 19:30:51 10° NNE
Lacrosse 5 1.9 19:20:04 10° WSW 19:25:11 79° NW 19:26:44 46° NE
Cosmos 2058 Rocket 3.1 19:21:29 10° NNW 19:25:53 81° W 19:30:18 10° S
IRIDIUM 103 4.5 19:21:41 10° N 19:26:55 75° W 19:32:06 10° S
YAOGAN 1 3.7 19:27:57 10° S 19:32:04 43° W 19:36:12 10° NNW
Gblst 52 Del rocket 4.2 19:29:35 10° W 19:35:09 72° NNW 19:36:23 53° NE
Lacrosse 5 rocket 1.9 19:37:15 10° NW 19:39:53 46° WNW 19:39:53 46° WNW
BREEZE-M DEB (TANK) 3.5 19:38:01 10° W 19:41:51 69° S 19:44:07 43° ESE
CZ-4 R/B 2.2 19:38:11 10° S 19:42:13 51° W 19:46:13 10° NNW
Cosmos 1844 Rocket 3.9 19:43:15 10° NW 19:48:25 40° WSW 19:53:32 10° S
CZ-4B R/B 4.3 19:45:48 10° S 19:50:51 43° W 19:56:02 10° NNW
IGS 5A 4.1 19:51:54 52° NW 19:51:54 52° NW 19:55:15 10° NNW
S3M 4.0 19:49:48 10° S 19:56:13 85° W 20:02:38 10° N
RESURS DK-1 3.9 19:53:11 10° NW 19:56:55 34° WSW 19:57:49 30° SW
Atlas Centaur 2 4.5 20:03:26 10° SW 20:09:17 21° S 20:09:34 21° SSE
Cosmos 2360 Rocket 3.0 20:04:23 10° SW 20:09:49 47° NW 20:12:13 30° N
Cosmos 2219 Rocket 2.6 20:04:39 10° SSW 20:08:53 54° SSW 20:08:53 54° SSW
Cosmos 2333 Rocket 2.5 20:09:06 10° SW 20:14:42 63° WNW 20:15:16 59° NNW
Cosmos 2278 Rocket 3.5 20:12:22 10° NNW 20:15:25 30° N 20:15:25 30° N
Cosmos 2322 Rocket 3.9 20:16:50 10° WSW 20:21:42 30° NW 20:24:43 19° N
SL-16 R/B 4.4 20:32:07 10° W 20:36:11 20° NW 20:39:19 13° N
Okean O Rocket 4.2 20:33:52 10° SW 20:36:52 18° W 20:39:54 10° NW
Lacrosse 5 4.3 21:04:09 10° WNW 21:05:57 20° WNW 21:05:57 20° WNW
